Latest Weather Observations for Bathurst Airport

IDN60801

Issued at 10:33 am EDT Wednesday 1 April 2015 (issued every 30 minutes, with the page automatically refreshed every 10 minutes)

About weather observations | Map of weather stations | Latest weather observations for NSW | Other Formats
Station Details ID: 063291 Name: BATHURST AIRPORT AWS Lat: -33.41 Lon: 149.65 Height: 744.5 m
Data from the previous 72 hours. | See also: Recent months for locations in New South Wales
Date/Time
EDT
Temp
°C
App
Temp
°C
Dew
Point
Rel
Hum
%
Delta-T
°C
Wind Press
QNH
hPa
Press
MSL
hPa
Rain
since 9 am
mm
Dir
 
Spd
km/h
Gust
km/h
Spd
kts
Gust
kts
01/10:30am 18.6 16.6 11.4 63 4.1 NNE 13 20 7 11 1026.1 1023.5 0.0
01/10:00am 18.2 16.0 12.0 67 3.5 NNE 15 22 8 12 1026.2 1023.6 0.0
01/09:30am 16.8 16.1 12.1 74 2.7 NW 7 15 4 8 1026.3 1023.7 0.0
01/09:00am 15.4 15.2 13.1 86 1.3 WSW 6 9 3 5 1026.2 1023.6 0.0
01/08:30am 14.6 15.6 13.1 91 0.9 CALM 0 6 0 3 1025.8 1023.2 0.0
01/08:00am 13.0 13.6 13.0 100 0.0 SSW 2 9 1 5 1025.7 1023.1 0.0
01/07:30am 11.3 10.6 11.3 100 0.0 SW 6 7 3 4 1025.4 1022.8 0.0
01/07:00am 11.6 10.9 11.4 99 0.1 WSW 6 7 3 4 1025.3 1022.7 0.0
01/06:30am 11.5 10.8 10.1 91 0.7 NE 4 9 2 5 1025.1 1022.5 0.0
01/06:00am 13.0 11.8 11.6 91 0.8 ENE 9 11 5 6 1025.0 1022.4 0.0
01/05:30am 13.4 12.3 12.0 91 0.8 E 9 11 5 6 1024.9 1022.3 0.0
01/05:00am 13.7 12.7 12.3 91 0.8 E 9 11 5 6 1024.9 1022.3 0.0
01/04:30am 12.5 11.6 11.2 92 0.7 SSE 7 9 4 5 1025.1 1022.5 0.0
01/04:00am 12.7 12.5 11.8 94 0.5 WSW 4 13 2 7 1025.3 1022.7 0.0
01/03:30am 13.2 13.1 12.1 93 0.6 WSW 4 7 2 4 1025.5 1022.9 0.0
01/03:00am 13.9 13.7 11.9 88 1.1 NW 4 11 2 6 1025.7 1023.1 0.0
01/02:30am 14.7 14.6 12.2 85 1.4 N 4 7 2 4 1025.9 1023.4 0.0
01/02:00am 14.7 13.6 12.0 84 1.5 NE 9 15 5 8 1026.2 1023.6 0.0
01/01:30am 15.0 13.9 12.0 82 1.7 ESE 9 17 5 9 1026.3 1023.7 0.0
01/01:00am 14.4 13.2 11.7 84 1.5 S 9 13 5 7 1026.6 1024.0 0.0
01/12:30am 14.9 13.3 11.5 80 1.9 E 11 17 6 9 1026.7 1024.1 0.0
01/12:00am 14.9 12.1 11.5 80 1.9 E 17 28 9 15 1026.6 1024.0 0.0
 
Date/Time
EDT
Temp
°C
App
Temp
°C
Dew
Point
Rel
Hum
%
Delta-T
°C
Wind Press
QNH
hPa
Press
MSL
hPa
Rain
since 9 am
mm
Dir
 
Spd
km/h
Gust
km/h
Spd
kts
Gust
kts
31/11:30pm 14.7 11.9 11.3 80 1.9 ENE 17 24 9 13 1026.7 1024.1 0.0
31/11:00pm 14.7 11.8 11.1 79 2.0 E 17 20 9 11 1026.9 1024.3 0.0
31/10:30pm 14.8 11.6 11.2 79 2.0 ENE 19 26 10 14 1027.0 1024.4 0.0
31/10:00pm 14.6 13.2 11.0 79 2.0 ENE 9 13 5 7 1027.1 1024.6 0.0
31/09:30pm 15.0 13.4 11.6 80 1.9 ENE 11 22 6 12 1027.1 1024.6 0.0
31/09:00pm 14.9 12.1 11.3 79 2.0 ENE 17 20 9 11 1027.0 1024.4 0.0
31/08:30pm 14.9 14.2 11.3 79 2.0 SSE 6 9 3 5 1026.5 1023.9 0.0
31/08:00pm 15.6 14.0 11.4 76 2.3 E 11 15 6 8 1026.1 1023.5 0.0
31/07:30pm 15.8 14.1 11.2 74 2.6 SE 11 15 6 8 1025.7 1023.1 0.0
31/07:00pm 16.8 13.9 10.9 68 3.3 ESE 17 24 9 13 1025.5 1022.9 0.0
31/06:30pm 17.7 13.9 11.0 65 3.8 ESE 22 32 12 17 1025.4 1022.8 0.0
31/06:00pm 18.9 15.5 11.2 61 4.3 ESE 20 28 11 15 1025.3 1022.7 0.0
31/05:30pm 19.9 16.5 11.1 57 5.0 E 20 28 11 15 1025.1 1022.5 0.0
31/05:00pm 20.0 16.6 10.7 55 5.2 ESE 19 24 10 13 1025.0 1022.4 0.0
31/04:30pm 20.1 17.7 11.3 57 5.0 E 15 20 8 11 1025.2 1022.6 0.0
31/04:00pm 20.7 17.5 11.3 55 5.4 E 19 24 10 13 1025.4 1022.8 0.0
31/03:30pm 21.4 18.2 11.4 53 5.7 E 19 26 10 14 1025.6 1023.0 0.0
31/03:00pm 20.7 18.0 10.2 51 5.9 ESE 15 26 8 14 1025.6 1023.0 0.0
31/02:30pm 22.9 19.3 10.0 44 7.3 NE 19 26 10 14 1025.7 1023.1 0.0
31/02:00pm 21.5 19.0 11.2 52 5.9 E 15 19 8 10 1026.2 1023.6 0.0
31/01:30pm 21.2 17.9 11.5 54 5.6 NE 20 28 11 15 1026.5 1023.9 0.0
31/01:00pm 21.1 18.1 10.6 51 5.9 NE 17 22 9 12 1026.9 1024.3 0.0
31/12:30pm 20.7 16.9 11.3 55 5.4 ESE 22 30 12 16 1027.4 1024.9 0.0
31/12:00pm 20.9 18.5 11.3 54 5.5 E 15 24 8 13 1027.7 1025.1 0.0
31/11:30am 20.0 16.8 11.2 57 5.0 ENE 19 28 10 15 1028.2 1025.6 0.0
31/11:00am 19.4 15.6 12.4 64 4.0 ENE 24 33 13 18 1028.2 1025.6 0.0
31/10:30am 19.3 17.3 12.8 66 3.8 ENE 15 28 8 15 1028.0 1025.4 0.0
31/10:00am 18.8 16.1 11.6 63 4.1 ENE 17 22 9 12 1027.9 1025.3 0.0
31/09:30am 17.5 15.7 12.0 70 3.1 ENE 13 20 7 11 1027.6 1025.0 0.0
31/09:00am 15.4 12.0 11.2 76 2.3 ENE 20 26 11 14 1027.3 1024.8 3.2
31/08:30am 14.9 10.6 10.7 76 2.3 ENE 24 32 13 17 1027.0 1024.4 3.2
31/08:00am 14.7 11.6 10.3 75 2.4 E 17 22 9 12 1026.6 1024.0 3.2
31/07:30am 14.4 10.9 10.2 76 2.3 ENE 19 26 10 14 1026.3 1023.7 3.2
31/07:00am 14.1 11.4 10.5 79 1.9 ENE 15 20 8 11 1025.8 1023.2 3.2
31/06:30am 14.0 11.0 10.6 80 1.9 ENE 17 20 9 11 1025.7 1023.1 3.2
31/06:00am 13.9 12.6 11.4 85 1.4 ESE 9 15 5 8 1025.5 1022.9 3.2
31/05:30am 13.9 12.2 12.5 91 0.8 ESE 13 17 7 9 1025.3 1022.7 3.2
31/05:00am 13.3 12.6 13.1 99 0.1 SE 9 11 5 6 1025.3 1022.7 3.2
31/04:30am 13.2 12.4 13.0 99 0.1 SE 9 13 5 7 1025.4 1022.8 3.2
31/04:00am 13.4 12.7 13.2 99 0.1 ESE 9 13 5 7 1025.6 1023.0 3.2
31/03:30am 13.4 11.6 13.4 100 0.0 ESE 15 19 8 10 1025.8 1023.2 3.2
31/03:00am 13.3 11.9 13.3 100 0.0 SE 13 19 7 10 1026.1 1023.5 3.2
31/02:30am 13.4 14.5 13.4 100 0.0 CALM 0 0 0 0 1026.6 1024.0 3.2
31/02:00am 13.1 12.9 13.1 100 0.0 WNW 6 9 3 5 1027.0 1024.4 3.2
31/01:43am 13.2 14.2 13.2 100 0.0 CALM 0 0 0 0 1027.2 1024.7 3.2
31/01:30am 13.2 14.1 13.0 99 0.1 CALM 0 4 0 2 1027.2 1024.7 3.0
31/01:25am 13.3 13.5 13.1 99 0.1 SSE 4 7 2 4 1027.2 1024.7 2.8
31/01:00am 13.4 13.3 13.2 99 0.1 SSE 6 7 3 4 1027.1 1024.6 2.4
31/12:30am 13.4 12.8 13.4 100 0.0 S 9 11 5 6 1026.8 1024.2 2.4
31/12:00am 13.4 12.7 13.2 99 0.1 SSE 9 11 5 6 1027.0 1024.4 2.0
 
Date/Time
EDT
Temp
°C
App
Temp
°C
Dew
Point
Rel
Hum
%
Delta-T
°C
Wind Press
QNH
hPa
Press
MSL
hPa
Rain
since 9 am
mm
Dir
 
Spd
km/h
Gust
km/h
Spd
kts
Gust
kts
30/11:30pm 13.7 13.1 13.5 99 0.1 SSE 9 11 5 6 1027.3 1024.8 0.8
30/11:00pm 13.9 12.5 13.3 96 0.3 SSE 13 17 7 9 1027.2 1024.7 0.4
30/10:30pm 15.0 14.5 13.9 93 0.6 SSE 9 11 5 6 1027.0 1024.4 0.2
30/10:00pm 15.1 14.8 13.3 89 1.0 E 7 9 4 5 1027.0 1024.4 0.2
30/09:30pm 15.6 14.7 12.7 83 1.7 ENE 9 15 5 8 1026.8 1024.2 0.0
30/09:00pm 15.8 14.7 11.8 77 2.2 E 9 11 5 6 1026.7 1024.1 0.0
30/08:30pm 17.0 15.1 10.6 66 3.5 SE 11 15 6 8 1026.2 1023.6 0.0
30/08:00pm 16.7 14.7 10.1 65 3.6 SE 11 17 6 9 1025.8 1023.2 0.0
30/07:30pm 16.7 14.0 8.9 60 4.2 SSE 13 19 7 10 1025.5 1022.9 0.0
30/07:00pm 17.6 15.1 10.9 65 3.7 SSE 15 20 8 11 1025.3 1022.7 0.0
30/06:30pm 17.8 15.6 10.9 64 3.9 SSE 13 17 7 9 1024.9 1022.3 0.0
30/06:00pm 18.2 15.6 10.6 61 4.2 S 15 20 8 11 1024.5 1021.9 0.0
30/05:30pm 18.3 15.6 10.2 59 4.5 ENE 15 20 8 11 1024.0 1021.4 0.0
30/05:00pm 18.8 15.9 9.8 56 4.9 ENE 15 20 8 11 1023.8 1021.2 0.0
30/04:30pm 20.5 18.0 4.5 35 8.1 SSE 7 9 4 5 1023.5 1020.8 0.0
30/04:00pm 20.7 18.1 4.3 34 8.2 S 7 11 4 6 1023.4 1020.7 0.0
30/03:30pm 21.0 18.5 3.7 32 8.6 SW 6 9 3 5 1023.5 1020.8 0.0
30/03:00pm 21.5 19.0 4.6 33 8.6 W 7 9 4 5 1023.7 1021.1 0.0
30/02:30pm 21.8 19.3 4.8 33 8.7 W 7 9 4 5 1023.8 1021.2 0.0
30/02:00pm 21.8 19.6 5.3 34 8.5 SSW 6 11 3 6 1024.1 1021.5 0.0
30/01:30pm 21.6 19.6 4.2 32 8.8 E 4 9 2 5 1024.5 1021.9 0.0
30/01:00pm 21.1 18.5 4.2 33 8.5 W 7 11 4 6 1025.0 1022.4 0.0
30/12:30pm 20.9 18.1 5.3 36 8.0 WSW 9 13 5 7 1025.2 1022.6 0.0
30/12:00pm 20.6 18.1 5.0 36 7.9 S 7 13 4 7 1025.6 1023.0 0.0
30/11:30am 18.8 16.5 4.9 40 7.0 SSE 6 9 3 5 1026.2 1023.6 0.0
30/11:00am 16.7 13.9 6.8 52 5.1 SW 11 13 6 7 1026.5 1023.9 0.0
30/10:30am 15.4 12.3 7.2 58 4.2 W 13 15 7 8 1026.9 1024.3 0.0
30/10:00am 14.8 12.8 6.4 57 4.2 SSE 6 11 3 6 1026.7 1024.1 0.0
30/09:30am 14.6 12.0 6.2 57 4.2 S 9 11 5 6 1026.5 1023.9 0.0
30/09:00am 13.6 11.6 6.2 61 3.7 SW 6 9 3 5 1026.5 1023.9 0.0
30/08:30am 13.7 11.5 6.1 60 3.8 E 7 9 4 5 1026.2 1023.6 0.0
30/08:00am 13.6 10.5 5.7 59 3.9 SE 11 13 6 7 1026.1 1023.5 0.0
30/07:30am 13.6 10.1 5.3 57 4.1 SE 13 19 7 10 1025.9 1023.4 0.0
30/07:00am 13.9 9.9 5.0 55 4.3 SE 15 19 8 10 1025.6 1023.0 0.0
30/06:30am 13.5 9.6 5.4 58 4.0 SSE 15 20 8 11 1025.3 1022.7 0.0
30/06:00am 13.9 9.9 5.0 55 4.3 SSE 15 19 8 10 1025.1 1022.5 0.0
30/05:30am 14.3 11.4 4.9 53 4.6 ESE 9 13 5 7 1025.0 1022.4 0.0
30/05:00am 13.4 10.9 4.8 56 4.1 NE 7 9 4 5 1025.2 1022.6 0.0
30/04:30am 12.7 10.0 5.8 63 3.4 NE 9 11 5 6 1024.9 1022.3 0.0
30/04:00am 12.5 11.5 5.7 63 3.3 CALM 0 6 0 3 1024.8 1022.2 0.0
30/03:30am 12.3 9.7 6.1 66 3.0 NNE 9 11 5 6 1024.8 1022.2 0.0
30/03:00am 12.3 10.8 6.6 68 2.8 SW 4 6 2 3 1024.7 1022.0 0.0
30/02:30am 13.3 11.0 5.7 60 3.7 SW 7 7 4 4 1024.5 1021.9 0.0
30/02:00am 13.8 11.3 4.7 54 4.4 SSW 7 9 4 5 1024.5 1021.9 0.0
30/01:30am 13.6 10.8 5.0 56 4.2 SSW 9 11 5 6 1024.9 1022.3 0.0
30/01:00am 13.4 11.5 4.8 56 4.1 S 4 6 2 3 1024.8 1022.2 0.0
30/12:30am 14.1 11.0 3.8 50 4.9 S 9 11 5 6 1024.8 1022.2 0.0
30/12:00am 15.0 11.9 3.5 46 5.4 S 9 11 5 6 1024.8 1022.2 0.0
 
Date/Time
EDT
Temp
°C
App
Temp
°C
Dew
Point
Rel
Hum
%
Delta-T
°C
Wind Press
QNH
hPa
Press
MSL
hPa
Rain
since 9 am
mm
Dir
 
Spd
km/h
Gust
km/h
Spd
kts
Gust
kts
29/11:30pm 14.1 12.9 4.4 52 4.7 CALM 0 6 0 3 1025.1 1022.5 0.0
29/11:00pm 13.6 11.3 4.7 55 4.3 ENE 6 7 3 4 1025.2 1022.6 0.0
29/10:30pm 15.5 14.0 3.0 43 5.9 CALM 0 0 0 0 1025.4 1022.8 0.0
29/10:00pm 15.2 13.8 3.4 45 5.6 CALM 0 0 0 0 1025.4 1022.8 0.0
29/09:30pm 16.3 13.7 1.2 36 6.9 SSE 4 7 2 4 1025.0 1022.4 0.0
29/09:00pm 17.4 14.3 1.4 34 7.4 SE 7 9 4 5 1024.5 1021.9 0.0
29/08:30pm 17.9 14.3 0.6 31 7.9 S 9 11 5 6 1023.9 1021.3 0.0
29/08:00pm 18.4 14.9 1.4 32 7.9 SSW 9 11 5 6 1023.9 1021.3 0.0
29/07:30pm 18.2 15.3 2.5 35 7.5 W 7 11 4 6 1023.7 1021.1 0.0
29/07:00pm 18.2 15.7 3.7 38 7.1 SW 6 9 3 5 1023.4 1020.7 0.0
29/06:30pm 20.0 16.4 2.8 32 8.4 SW 11 13 6 7 1022.9 1020.3 0.0
29/06:00pm 21.8 17.6 1.5 26 9.7 SW 13 17 7 9 1022.7 1020.1 0.0
29/05:30pm 22.9 18.6 0.7 23 10.6 WSW 13 20 7 11 1022.7 1020.1 0.0
29/05:00pm 23.7 20.1 0.7 22 11.0 W 9 17 5 9 1022.6 1020.0 0.0
29/04:30pm 24.2 21.1 1.2 22 11.2 WNW 7 19 4 10 1022.5 1019.9 0.0
29/04:00pm 23.7 19.5 1.4 23 10.8 NNW 13 17 7 9 1022.7 1020.1 0.0
29/03:30pm 23.8 19.3 4.2 28 10.0 WNW 17 22 9 12 1023.1 1020.5 0.0
29/03:00pm 23.2 20.9 4.7 30 9.5 NNW 6 11 3 6 1023.4 1020.7 0.0
29/02:30pm 22.5 19.0 5.4 33 8.9 W 13 17 7 9 1023.5 1020.8 0.0
29/02:00pm 21.6 18.7 6.3 37 8.0 WNW 11 20 6 11 1023.9 1021.3 0.0
29/01:30pm 21.2 18.1 7.4 41 7.4 N 13 19 7 10 1024.3 1021.7 0.0
29/01:00pm 20.3 18.2 6.6 41 7.1 W 7 17 4 9 1024.5 1021.9 0.0
29/12:30pm 21.2 18.7 6.7 39 7.6 W 9 19 5 10 1025.0 1022.4 0.0
29/12:00pm 19.8 17.1 5.8 40 7.2 NNW 9 20 5 11 1025.2 1022.6 0.0
29/11:30am 17.5 16.6 9.2 58 4.5 NNW 4 11 2 6 1025.3 1022.7 0.0
29/11:00am 16.7 15.5 9.6 63 3.8 NE 6 11 3 6 1025.5 1022.9 0.0

Other Formats:

Comma delimited format used in spreadsheet applications
http://www.bom.gov.au/fwo/IDN60801/IDN60801.94729.axf

JavaScript Object Notation format (JSON) in row-major order
http://www.bom.gov.au/fwo/IDN60801/IDN60801.94729.json